Wind_Speed
8 4 3 5 6 6 6 6 6 3 2 3 3 3 4 5 3 5 2 5 12 8 5 8 7 5 8 7 8 14 18 18 19 22 21 18 22 29 31 31 32 32 31 30 31 31 32 31 27 24 22 23 24 22 20 18 16 17 16 17 18 17 17 18 19 18 19 20 18 17 16 15 14 13 11 11 11 11 12 12 10 11 11 11 11 11
6 5 5 7 8 7 6 5 5 2 1 1 1 2 2 4 4 6 4 9 11 6 3 6 8 7 9 8 7 11 13 15 21 24 22 19 23 29 31 32 32 31 29 28 31 32 32 33 29 25 24 25 25 24 21 19 17 17 17 17 19 19 19 19 18 18 19 20 19 17 15 14 13 12 11 11 11 10 10 10 10 11 11 11 11 11
2 4 7 8 7 5 4 2 5 3 1 1 0 1 2 4 2 3 3 9 9 4 2 1 5 6 7 8 8 10 12 14 21 25 20 16 23 29 30 32 32 30 29 28 31 34 35 35 31 28 27 25 25 23 22 21 19 18 17 17 20 20 19 18 18 18 20 20 19 16 14 13 12 11 10 9 9 9 8 9 9 10 11 11 10 10
2 5 8 8 5 4 5 4 3 2 1 1 2 2 3 3 2 2 2 9 7 4 3 1 1 2 5 7 7 9 11 10 15 20 16 12 19 28 29 32 32 30 29 30 33 36 36 36 34 31 29 27 26 24 23 23 21 20 19 17 18 20 19 18 18 18 19 19 17 15 13 11 10 10 9 8 8 7 7 9 9 9 10 11 10 9
5 8 6 4 4 5 5 6 2 2 3 2 3 4 4 4 2 1 4 6 5 5 8 7 2 2 5 7 6 5 5 9 13 17 16 13 16 23 24 28 32 30 31 33 35 37 38 38 36 34 31 29 29 26 23 23 22 21 20 17 16 17 18 18 18 17 18 20 19 17 15 13 12 11 11 11 9 8 7 8 9 9 9 10 9 8
7 8 3 3 3 4 4 6 3 5 2 3 3 8 8 5 3 6 9 6 3 2 7 8 3 3 5 8 8 5 3 6 13 16 20 18 16 20 19 21 28 30 31 34 36 38 39 39 38 36 33 31 30 27 23 22 20 19 20 18 16 16 17 18 18 17 19 22 22 21 19 16 16 15 15 12 10 9 8 8 9 9 9 9 9 9
4 4 4 4 4 4 4 5 4 7 4 2 5 8 9 6 6 11 12 7 3 3 6 7 3 1 3 7 8 8 6 6 8 13 20 20 18 22 20 17 23 30 32 34 37 39 40 40 39 38 36 33 31 27 24 23 20 19 20 19 17 17 17 18 19 18 19 22 24 22 20 18 16 15 14 11 9 8 7 8 8 9 9 10 10 9
3 3 4 4 5 4 5 5 4 8 6 4 5 6 8 7 9 13 12 7 2 2 3 6 3 1 3 4 7 10 9 9 9 10 15 20 21 26 24 19 21 29 32 33 36 39 40 41 40 39 37 34 30 27 26 25 22 20 21 19 17 17 17 17 19 19 19 22 24 22 20 18 16 14 12 10 9 9 8 8 8 8 9 10 10 10
3 4 5 6 6 4 5 7 7 9 6 6 6 5 7 8 10 12 10 6 3 4 2 6 3 2 3 3 5 9 9 12 14 11 13 20 25 29 29 23 21 27 31 31 34 39 41 41 40 37 36 34 31 29 28 26 23 21 21 20 18 18 18 17 18 20 20 21 23 22 20 18 16 14 12 11 10 10 10 9 9 9 9 10 10 10
3 7 7 6 5 5 7 9 8 10 7 6 6 5 4 6 8 9 7 4 2 2 4 8 6 2 3 2 6 8 9 13 13 11 13 20 26 31 33 29 23 25 29 28 29 36 40 41 39 37 34 34 32 31 28 26 23 22 21 21 20 19 19 17 18 21 22 21 22 22 20 18 15 14 14 13 12 12 11 10 10 11 11 11 11 11
6 10 8 4 7 9 9 10 9 13 10 4 4 4 1 0 3 4 3 3 3 2 6 9 11 6 2 2 7 8 6 10 12 10 12 18 24 30 34 33 27 25 28 27 26 31 37 40 39 38 36 34 34 32 31 28 25 24 22 21 20 19 19 19 19 22 23 22 22 22 21 18 16 15 14 15 14 14 13 12 12 12 12 12 12 11
5 6 5 6 13 13 8 7 8 11 10 4 2 4 3 2 2 3 3 3 2 5 6 8 11 8 3 4 7 8 4 6 12 12 14 18 23 28 33 35 32 26 26 27 25 26 33 38 39 39 38 36 36 35 33 30 27 25 23 22 21 21 21 21 21 23 24 24 23 22 21 20 17 15 15 15 15 15 14 13 13 13 13 13 13 12
4 4 3 4 11 11 6 2 4 4 6 5 3 4 4 1 1 2 0 1 2 7 5 7 10 6 6 5 4 7 6 5 11 15 17 20 25 28 32 37 36 28 25 26 25 24 30 37 39 40 40 38 38 37 35 32 28 26 24 23 22 22 22 22 22 24 25 25 24 23 22 20 18 17 16 15 15 15 15 14 14 14 14 14 13 13
3 5 4 1 5 8 8 4 3 3 5 7 6 5 4 2 2 3 3 1 4 9 6 6 11 4 5 3 1 5 8 10 16 20 23 26 28 30 32 37 39 34 28 27 27 25 27 35 40 41 42 41 39 38 36 33 30 27 26 24 23 23 23 23 23 25 26 26 26 24 23 21 19 18 17 16 17 16 15 14 15 15 14 13 13 12
1 3 3 2 3 3 6 7 7 5 5 6 5 6 5 4 4 4 4 3 5 6 3 5 8 3 2 2 5 7 8 11 17 19 23 26 28 30 30 33 37 38 34 29 28 27 26 31 38 41 42 42 40 39 37 35 31 29 27 25 23 23 24 25 24 26 27 27 26 26 25 23 21 20 19 18 17 17 16 15 15 15 14 13 12 11
2 4 6 4 5 3 3 5 6 7 3 3 3 5 4 5 5 3 4 5 4 2 1 3 3 2 3 3 8 6 1 6 12 14 17 20 24 27 27 28 32 37 37 32 28 28 26 27 33 39 41 42 41 40 39 36 33 30 28 26 24 22 24 25 25 26 27 27 27 27 26 25 23 22 21 20 19 19 17 16 16 15 14 13 12 12
1 4 6 5 6 3 2 4 5 6 3 2 3 4 5 4 7 4 1 1 3 3 1 0 1 4 1 2 8 9 8 7 7 9 13 17 21 24 25 27 30 33 37 35 31 30 27 26 30 35 38 40 41 40 39 37 33 30 28 26 24 22 23 25 25 25 26 27 27 27 27 26 25 24 23 23 21 20 19 18 17 15 14 14 13 13
1 3 5 4 4 6 6 6 2 5 5 4 3 5 4 1 4 3 1 2 3 2 1 2 1 3 2 1 6 10 10 8 6 7 8 12 17 20 21 25 28 30 35 36 34 30 28 26 28 31 35 38 39 40 39 37 35 32 29 26 24 22 22 24 24 24 26 27 27 27 27 27 27 25 24 24 22 20 19 19 18 16 15 15 14 14
1 2 6 2 2 8 9 4 1 1 3 6 5 3 3 2 0 1 2 1 1 1 1 2 3 2 1 1 4 8 7 6 6 8 8 7 9 12 14 18 22 24 27 28 25 21 20 25 29 31 32 34 37 38 38 37 35 33 31 28 26 24 22 22 23 24 25 26 27 27 27 27 28 26 25 24 22 20 20 20 20 18 16 16 15 15
1 1 4 5 4 6 6 3 1 4 4 3 3 2 1 3 3 2 2 3 3 3 3 1 2 2 2 2 2 6 6 5 7 8 8 8 10 11 10 11 13 16 18 19 19 20 21 27 32 32 31 31 33 36 37 36 36 34 33 31 30 28 25 24 24 24 24 25 26 26 27 28 29 28 26 25 23 22 21 20 20 19 18 17 16 16
1 2 2 6 5 3 2 1 1 1 2 2 2 1 1 0 1 2 1 1 4 4 3 3 2 3 2 0 3 7 8 8 8 8 8 10 13 14 13 13 11 10 12 14 18 24 27 26 27 29 29 29 30 33 35 35 35 36 35 34 33 30 29 28 27 26 25 24 25 26 27 28 29 29 28 26 25 24 22 20 19 19 19 18 18 17
1 1 1 4 4 2 3 4 3 3 4 4 2 1 3 2 2 2 1 2 2 4 4 4 3 3 1 1 3 6 7 7 9 10 10 13 16 16 14 14 14 13 12 12 13 17 23 24 24 28 31 29 27 29 33 34 35 36 35 35 34 32 31 30 28 27 26 25 26 26 26 28 29 30 29 28 27 25 24 22 20 19 19 19 19 18
1 2 1 3 2 3 7 7 5 3 3 4 2 2 1 2 4 4 4 3 2 3 2 3 2 2 1 1 1 5 8 10 12 14 14 15 17 18 16 14 12 12 12 10 9 10 15 20 23 28 31 29 27 30 33 35 36 35 33 34 34 34 33 33 31 29 27 26 27 27 26 27 29 30 30 30 28 27 25 24 21 20 19 19 19 19
1 2 2 4 4 4 6 6 4 3 5 4 3 3 2 2 2 5 5 3 4 3 2 3 1 2 1 2 1 8 13 13 13 15 16 15 15 18 18 16 14 12 12 10 8 9 12 16 18 22 27 28 30 33 35 36 36 34 33 33 34 34 33 34 34 32 29 28 28 28 28 28 28 30 30 30 30 28 27 25 23 21 20 20 19 19
2 1 2 2 3 5 5 5 5 5 5 3 4 4 4 4 1 4 2 3 3 3 4 5 2 2 3 2 3 8 11 10 10 13 15 14 13 16 18 18 16 13 13 12 8 9 13 15 16 18 23 27 30 32 33 34 35 36 35 33 32 33 33 34 35 34 32 30 29 29 30 29 29 29 30 31 30 30 28 27 25 24 22 21 20 20
1 1 2 3 3 1 1 2 3 4 4 2 4 6 7 5 2 4 3 3 2 3 3 4 3 4 5 5 6 7 7 8 10 11 14 15 15 15 16 18 17 14 12 11 11 14 15 14 14 14 18 22 26 28 29 30 32 35 37 34 29 29 30 32 34 36 35 33 31 31 30 30 30 30 30 30 30 30 29 28 27 25 24 23 22 21
2 2 1 5 5 3 3 3 4 3 3 3 6 8 8 6 1 5 4 2 4 4 3 0 5 11 10 9 10 8 6 7 9 11 13 15 17 17 17 17 17 17 15 13 14 17 17 15 11 9 10 14 19 22 23 23 25 28 32 33 30 28 27 28 32 36 37 35 33 32 30 29 29 29 30 30 30 29 28 28 27 26 25 24 23 23
4 3 1 5 4 4 4 3 5 4 2 2 6 9 9 8 3 4 2 4 7 7 1 3 9 15 13 12 12 9 7 7 8 11 14 15 18 18 18 18 17 17 16 14 16 17 18 17 12 8 8 9 12 16 17 16 18 22 26 29 31 30 29 28 31 35 37 36 35 33 30 29 28 29 29 29 29 29 28 28 27 26 26 25 24 24
5 2 2 3 2 3 1 4 5 4 3 2 5 8 9 9 3 3 2 2 6 5 5 9 11 12 13 13 12 9 9 10 11 15 17 18 19 18 18 19 19 18 16 15 16 17 18 17 14 12 10 8 10 13 15 14 15 18 22 24 25 27 28 29 30 31 34 36 37 33 31 29 29 29 29 29 28 28 28 27 26 26 25 25 25 25
3 2 4 1 1 4 8 9 9 9 6 4 6 8 9 9 3 4 4 4 6 4 8 14 12 7 9 10 9 11 15 17 17 18 18 18 19 18 17 20 20 19 18 17 17 18 18 17 15 13 10 8 8 9 9 10 11 13 17 20 20 21 23 24 26 29 31 35 37 34 29 28 28 28 29 29 28 27 27 26 25 25 25 26 26 26
3 2 4 3 3 5 9 10 10 10 6 5 8 10 10 9 5 5 7 7 9 8 9 15 14 6 4 8 13 17 20 20 19 18 17 16 18 19 18 18 20 20 20 19 19 19 19 17 16 15 14 11 8 7 6 6 6 7 10 15 18 19 19 20 22 24 27 29 32 32 30 30 31 30 29 30 31 29 27 26 25 25 25 25 26 25
4 2 4 4 5 2 5 8 10 12 7 6 9 13 13 8 3 2 2 3 8 11 11 12 12 6 5 11 16 18 19 19 18 19 19 17 17 19 19 19 19 20 20 20 20 20 19 18 17 17 17 16 12 9 7 5 4 3 3 8 15 17 17 18 18 18 20 23 25 26 26 26 28 29 29 31 32 31 29 28 27 26 26 26 26 26
2 2 2 3 4 2 4 6 7 8 6 4 6 10 11 8 2 4 5 3 7 13 11 8 7 7 9 14 15 14 15 17 18 21 23 21 19 20 20 20 20 20 21 21 20 20 19 19 19 18 18 18 16 13 9 6 5 5 6 6 8 9 8 10 13 14 15 17 18 19 21 22 23 25 27 28 30 31 31 29 27 27 28 28 28 28
2 4 2 2 3 2 4 5 7 4 2 2 6 7 6 3 6 9 7 7 5 4 5 6 8 9 11 13 14 14 16 19 22 24 26 26 24 22 20 20 20 20 20 20 21 20 20 19 20 19 19 19 19 18 15 11 9 10 11 10 7 4 3 4 8 10 9 12 15 15 17 19 20 20 21 22 23 24 26 27 26 27 29 29 30 30
3 4 1 1 4 1 2 6 6 0 3 4 6 6 5 6 10 12 11 11 11 8 9 11 8 8 12 15 19 22 22 23 27 27 27 28 27 25 24 22 20 20 20 20 21 21 20 19 18 18 18 18 18 18 19 17 14 13 14 14 14 12 8 4 5 5 4 6 11 11 11 14 16 16 16 18 18 18 19 20 21 22 24 26 28 29
3 2 1 1 2 1 1 4 4 5 5 4 5 4 3 5 5 8 10 11 11 8 8 9 7 7 14 19 22 25 27 27 26 25 26 26 26 26 26 23 21 21 21 21 22 22 21 19 19 18 18 17 16 16 17 17 16 15 14 14 15 15 12 9 6 4 2 0 2 4 5 7 10 11 11 13 15 15 13 13 14 16 18 21 22 24
5 3 2 2 1 2 2 1 2 1 3 5 4 2 2 3 2 2 4 5 8 8 6 9 10 9 14 20 22 25 28 25 18 16 21 25 24 25 26 24 23 22 21 21 22 22 21 20 19 19 17 16 16 15 14 13 13 13 13 13 13 14 13 12 11 9 7 6 5 4 3 1 2 4 3 5 7 9 10 10 9 10 13 15 17 19
5 3 3 2 1 2 3 2 2 2 1 4 5 5 5 6 2 5 6 2 5 6 7 11 11 9 11 18 22 25 24 17 8 7 17 23 24 26 26 26 25 24 23 23 22 22 20 18 18 17 15 15 15 14 11 9 9 10 11 12 11 11 12 13 13 12 10 9 8 7 6 5 4 2 2 3 2 3 6 8 6 5 7 8 10 13
6 3 4 4 2 2 4 3 1 3 3 4 5 7 10 9 2 6 6 1 2 3 8 13 14 13 13 17 21 19 14 7 3 7 18 24 25 26 27 26 25 24 23 23 22 21 19 17 16 15 12 12 13 12 10 8 7 7 9 10 9 9 10 11 10 10 10 10 9 8 8 8 7 6 5 3 4 3 4 5 6 6 6 6 8 10
5 4 4 4 2 1 3 1 1 2 3 4 5 6 10 8 3 5 3 3 7 11 14 16 18 16 14 14 14 10 7 7 8 11 20 26 25 25 25 25 23 22 21 20 18 17 16 13 11 10 9 9 10 8 7 6 6 6 6 7 6 6 8 8 7 6 7 8 8 7 6 6 6 6 6 5 4 3 4 4 5 6 7 7 8 9
3 3 3 3 1 1 2 1 1 2 3 5 6 9 10 7 4 3 2 6 15 21 20 21 23 20 15 11 8 6 9 17 22 23 25 25 24 24 24 22 20 19 17 17 15 13 12 10 6 4 5 6 6 5 5 5 5 5 5 4 3 4 6 6 4 3 3 4 5 5 4 4 4 4 3 4 5 4 4 4 4 4 5 6 7 8
2 2 2 2 1 0 2 2 1 3 3 4 11 13 7 3 1 3 3 9 22 28 25 24 29 29 25 21 15 12 14 22 29 32 29 25 23 22 21 19 18 17 15 14 12 10 8 7 5 2 1 2 3 4 5 6 5 4 4 4 3 3 3 2 1 2 1 0 1 2 3 2 2 3 3 3 4 4 4 6 6 4 2 2 3 4
2 0 2 1 1 1 2 3 2 2 3 5 10 9 3 1 4 6 8 10 21 31 31 29 30 32 32 28 20 16 21 28 32 32 30 27 26 23 21 19 18 16 13 11 9 7 5 3 2 0 2 4 6 7 7 7 6 5 5 5 5 4 3 3 3 4 5 4 5 4 3 2 1 2 3 3 4 4 4 4 5 5 4 3 2 3
1 1 0 2 1 2 2 0 2 4 5 8 6 1 1 3 5 10 11 10 17 30 34 31 29 30 30 26 22 24 31 35 35 33 31 28 26 24 22 19 16 13 10 7 4 2 1 3 4 5 6 6 7 8 9 9 8 8 7 7 7 7 7 6 6 6 7 7 7 7 5 4 2 3 3 3 2 1 1 1 1 1 2 2 3 3
2 3 3 1 0 2 3 4 4 3 7 8 2 6 8 9 9 10 11 12 16 25 32 32 30 29 27 26 28 32 35 36 34 32 30 27 25 22 20 17 13 10 7 4 2 3 5 7 8 9 9 8 7 6 7 8 8 9 8 9 9 10 10 9 9 8 7 8 8 8 7 5 4 4 4 4 3 3 4 5 4 4 3 3 3 3
2 2 2 2 1 1 1 2 4 6 9 8 5 7 10 10 10 10 12 14 14 17 25 29 28 27 27 28 31 33 34 34 32 28 25 23 20 18 16 14 12 10 8 6 4 4 6 7 8 10 11 11 10 8 7 6 6 6 7 8 10 11 11 11 10 9 8 7 8 8 8 7 6 6 6 5 5 5 6 6 6 6 6 6 5 4
4 5 2 1 2 1 1 5 6 7 10 10 7 7 9 10 9 9 12 14 14 14 20 26 28 29 30 32 32 30 28 27 26 24 21 18 16 14 12 11 10 8 6 5 5 5 6 7 9 11 12 13 13 11 9 7 5 5 5 6 8 9 10 10 10 10 10 9 8 8 8 8 8 8 8 8 7 7 7 7 7 7 7 8 8 7
3 7 3 1 2 1 2 6 4 9 11 11 9 7 7 10 10 8 10 14 15 16 19 23 26 28 29 30 29 27 24 21 18 17 17 16 14 13 12 10 8 6 5 6 6 6 6 9 11 12 14 14 14 12 10 9 8 7 7 8 9 9 10 10 10 10 10 10 10 10 9 9 10 10 10 10 10 10 10 10 10 9 8 8 10 10
3 6 1 2 2 1 2 4 3 9 9 11 12 10 6 9 13 12 11 12 14 17 20 21 21 22 23 24 25 25 24 22 21 19 17 17 15 14 12 9 8 7 7 6 5 6 8 10 11 12 13 13 13 12 11 10 11 11 12 12 12 12 12 11 11 10 10 10 10 10 10 10 11 11 11 11 11 11 11 11 12 12 11 9 10 11
2 3 1 2 2 2 3 1 2 4 3 6 11 11 8 6 11 13 13 13 14 15 16 17 17 17 18 21 23 23 23 24 23 21 19 17 15 13 12 11 10 8 7 6 6 7 9 10 12 13 13 12 13 13 13 13 13 13 13 12 12 11 11 12 12 12 12 11 11 11 11 11 11 12 13 13 13 13 12 12 13 13 14 14 13 12
1 2 2 3 2 3 4 2 2 3 4 5 8 9 8 7 7 8 8 9 11 14 15 15 14 15 18 20 21 21 22 23 23 20 18 17 15 14 13 12 11 9 8 8 8 8 9 10 13 13 13 13 13 13 14 14 14 12 11 10 10 11 11 11 12 12 13 13 13 13 13 13 12 13 13 14 14 15 15 14 14 14 15 17 18 17
Wind_Direction
175 184 219 200 213 218 210 187 167 143 62 90 105 102 151 180 225 238 231 161 164 166 200 186 150 165 198 198 194 186 178 173 172 178 191 202 193 184 185 188 191 195 197 197 199 202 203 202 195 188 189 190 188 189 191 191 193 196 195 194 190 182 178 178 178 176 173 168 163 160 155 149 150 154 159 163 158 155 159 161 162 167 173 175 176 177
159 190 232 217 216 217 214 186 154 143 352 2 98 85 181 206 235 245 193 158 168 166 186 178 153 172 200 201 198 185 179 176 175 181 193 204 197 188 188 191 193 196 196 196 197 199 202 199 194 190 190 189 188 189 194 196 196 197 199 198 192 186 184 184 184 183 179 174 170 166 160 154 153 154 155 158 158 156 160 163 163 166 169 170 172 174
159 224 239 227 215 211 242 198 132 127 154 157 66 84 256 245 249 286 144 151 170 153 62 190 168 174 192 197 198 194 195 184 180 186 192 201 196 190 191 192 194 196 196 194 194 196 198 197 194 191 191 189 188 189 194 198 198 198 201 200 195 191 189 186 187 187 181 177 175 170 166 163 163 159 152 152 156 159 165 168 168 167 169 169 169 171
197 239 235 223 195 181 254 258 126 81 334 151 133 144 259 240 152 1 140 153 151 129 130 138 148 184 183 194 197 193 192 176 181 192 190 197 199 193 193 194 193 194 193 192 193 194 195 195 194 192 191 190 189 191 194 199 200 199 201 201 198 198 195 190 189 187 180 177 179 181 179 175 175 169 159 161 166 167 169 175 177 175 175 176 174 176
229 250 231 189 166 177 232 262 208 155 272 249 171 200 241 228 188 153 158 148 105 116 156 137 84 275 189 196 203 178 177 166 172 188 195 203 199 192 194 196 196 195 193 192 191 192 193 194 195 193 191 190 190 193 197 200 201 201 203 204 204 206 202 196 195 188 180 180 183 187 191 187 185 185 181 183 185 183 182 182 184 183 184 186 186 187
246 258 228 152 178 184 208 252 218 164 226 295 216 214 219 211 165 133 141 142 104 156 180 149 131 272 203 200 205 177 187 175 164 179 200 210 197 186 187 190 196 195 192 194 192 191 192 193 194 194 193 191 191 195 199 201 203 204 207 208 211 213 208 203 199 191 185 187 186 187 192 189 187 190 190 192 194 192 189 186 185 188 192 195 197 198
248 233 172 175 205 186 201 246 215 157 156 277 239 214 207 187 139 143 151 156 162 191 197 174 152 276 218 204 201 186 192 197 177 182 200 210 196 184 184 182 190 190 185 189 191 190 192 193 194 194 194 193 193 197 200 201 204 207 209 212 216 217 213 207 202 197 192 191 190 190 192 192 194 195 194 198 201 195 192 192 191 193 197 199 202 204
233 202 171 190 207 191 206 240 210 155 147 237 239 188 185 175 154 165 167 167 172 102 171 194 144 97 241 217 187 182 193 205 206 193 197 209 200 188 189 186 184 186 182 183 187 189 191 193 194 194 195 196 196 198 199 200 204 208 210 214 219 216 209 207 205 202 198 194 192 193 194 196 199 202 201 201 199 195 197 199 200 204 205 205 206 206
223 195 191 189 206 212 212 227 199 160 172 242 224 168 178 179 171 178 175 176 163 93 174 220 164 107 272 250 157 167 196 211 211 202 194 203 200 193 195 195 185 183 183 182 185 190 191 193 195 195 196 197 199 200 200 201 204 207 211 215 218 212 205 207 208 205 201 198 196 197 198 198 198 201 204 204 202 200 202 203 203 209 212 211 211 210
244 226 216 180 193 217 219 228 192 167 203 236 198 194 208 190 183 182 173 164 124 119 216 212 186 188 276 239 160 166 204 217 209 203 200 200 199 196 199 200 192 182 183 185 186 190 193 194 196 197 197 199 200 202 201 202 204 207 210 213 215 211 205 207 210 207 204 201 201 202 201 201 199 198 201 205 206 205 205 206 205 208 212 212 214 213
262 259 253 198 204 219 220 227 196 182 206 211 162 192 214 168 175 161 149 97 99 243 241 202 186 191 277 237 183 182 204 206 195 190 198 200 197 198 200 201 198 186 183 186 187 191 194 195 196 197 199 200 201 202 202 202 205 207 210 214 215 213 210 210 211 209 206 204 206 207 204 204 202 200 203 205 206 206 206 206 207 209 210 211 213 213
299 272 260 214 215 215 210 230 213 190 196 191 147 141 103 6 26 73 25 41 131 240 244 197 183 183 235 248 204 215 232 182 185 187 190 195 194 197 199 201 202 196 187 187 187 190 195 195 195 196 199 201 201 201 202 204 206 208 211 214 215 215 214 213 211 209 209 207 208 210 208 207 205 204 209 210 209 209 208 207 210 211 208 209 212 211
314 246 246 225 220 207 172 219 246 188 159 165 165 124 113 17 28 113 274 23 219 246 240 173 164 176 238 252 218 229 236 186 188 194 189 189 190 194 197 199 203 204 198 194 189 188 194 196 196 196 198 200 201 202 204 205 207 209 212 215 217 218 216 214 211 209 210 210 211 212 213 211 208 209 214 216 215 214 213 210 211 214 212 211 212 212
324 287 297 293 239 206 165 163 226 211 162 164 172 152 141 128 116 181 212 128 217 254 274 160 157 185 264 265 276 253 238 199 191 195 191 188 189 191 194 197 202 206 206 206 201 192 193 197 198 199 199 200 202 204 206 206 208 210 212 216 219 221 219 215 212 210 211 212 213 214 216 215 212 213 217 220 220 219 217 213 212 217 218 216 215 216
121 296 281 196 242 221 177 182 181 164 159 175 172 146 150 160 154 184 195 166 200 242 290 142 158 199 234 248 294 289 256 200 187 193 190 186 188 189 191 196 201 205 207 211 211 202 195 197 200 201 201 202 204 205 206 208 209 211 213 215 219 222 220 217 215 213 213 213 213 214 216 217 217 218 221 222 223 223 221 218 215 216 220 221 218 218
133 253 251 241 272 260 206 214 170 125 126 203 149 121 161 184 157 162 184 173 167 156 124 145 179 244 206 273 321 334 343 153 160 173 175 176 183 184 188 195 200 204 206 210 214 209 199 198 202 203 203 204 205 206 207 209 211 213 214 216 220 222 220 218 216 215 215 214 214 215 216 218 219 221 223 224 224 224 224 225 222 217 219 222 220 219
83 265 276 322 308 249 218 254 186 150 174 204 126 156 210 184 137 134 202 141 99 122 197 240 291 308 315 341 350 21 48 68 104 140 157 167 176 180 186 194 200 204 207 210 215 215 207 200 201 204 205 206 206 206 208 210 213 215 216 218 220 221 219 218 217 216 217 216 215 216 217 218 219 221 223 224 224 224 225 228 228 224 221 221 221 221
136 276 292 353 331 289 303 306 229 157 144 138 164 201 212 111 94 106 131 20 55 132 279 352 312 313 18 36 346 15 33 34 47 81 120 153 171 181 189 195 200 204 207 211 216 218 214 203 198 201 205 206 207 208 210 212 215 216 218 220 221 220 217 215 218 217 217 218 217 216 216 216 218 219 221 222 223 225 227 229 230 229 226 224 223 223
67 310 291 292 280 301 325 351 221 322 96 136 165 182 143 138 185 48 140 176 97 153 244 353 328 306 150 227 343 14 24 27 47 65 81 109 143 168 185 193 200 205 207 209 210 209 205 200 198 199 203 205 207 209 212 214 216 217 218 221 224 224 221 216 218 218 218 219 219 217 216 215 217 218 220 221 223 226 229 231 233 233 231 228 227 225
45 83 281 285 292 309 344 44 178 314 354 77 97 54 71 151 166 159 155 157 140 155 161 101 315 278 214 250 28 46 41 53 67 71 74 78 94 116 140 161 181 195 199 200 199 201 208 208 204 201 202 206 208 209 211 214 217 218 218 221 223 225 225 222 221 222 222 221 221 220 217 216 217 217 219 221 223 226 230 232 234 235 234 232 230 228
22 86 261 294 329 358 1 351 202 174 37 30 45 73 238 312 153 176 178 106 122 143 151 137 207 266 277 237 98 85 75 72 74 78 74 64 70 85 101 113 124 151 177 193 201 207 212 210 200 196 200 207 209 208 210 213 217 218 219 221 223 225 227 227 226 227 227 224 224 223 220 218 218 218 220 221 223 227 230 232 232 233 236 237 234 230
354 58 279 299 345 3 255 269 262 204 178 160 127 170 203 181 145 155 245 310 93 127 157 152 175 263 304 116 119 101 90 71 67 74 70 58 59 64 74 92 102 113 142 172 188 198 205 205 199 198 201 202 202 202 207 213 216 217 218 219 223 226 228 230 230 229 229 228 226 224 222 220 220 220 221 222 224 227 229 231 232 232 236 238 235 231
204 91 340 282 280 264 264 282 301 273 179 143 95 31 60 127 122 139 197 247 82 93 108 105 113 267 272 251 216 108 95 83 81 82 76 67 67 67 64 69 85 101 120 144 158 172 194 206 207 206 206 204 201 203 208 213 215 216 218 220 222 224 227 231 232 232 232 231 229 226 223 221 222 223 224 225 226 228 229 231 232 233 235 237 235 232
336 70 358 303 294 303 296 299 319 11 69 60 1 16 19 281 175 148 179 176 126 140 130 83 73 225 184 259 199 120 109 103 99 96 92 86 83 85 81 73 74 85 93 112 148 164 178 198 204 203 207 209 209 211 214 215 217 219 221 223 224 225 227 231 232 232 233 234 232 230 225 221 221 223 225 227 228 229 230 231 232 233 234 236 236 234
346 34 45 5 353 352 343 343 348 2 38 33 293 307 323 301 155 129 125 77 113 192 158 125 165 183 146 191 158 126 118 111 107 105 104 101 94 92 93 89 87 88 89 100 121 132 152 185 198 193 200 208 211 216 219 218 220 223 223 224 224 224 226 230 232 232 233 236 235 233 228 224 222 223 225 227 229 230 230 231 232 232 232 234 236 236
13 74 105 102 88 59 358 357 347 328 339 338 296 311 332 339 84 136 124 85 135 198 125 123 158 138 137 155 142 128 119 111 110 109 107 105 101 95 91 92 96 100 98 98 95 99 124 165 189 186 190 203 210 216 219 218 220 222 223 222 221 222 224 228 231 233 234 236 237 235 231 227 224 224 224 226 228 230 231 231 231 232 233 234 235 236
120 50 78 130 129 159 203 240 263 281 303 312 318 327 333 333 41 120 119 145 169 145 77 338 158 141 150 161 145 135 128 119 117 111 104 101 101 97 92 92 95 98 97 95 92 94 109 137 168 183 187 201 213 218 220 220 221 225 227 227 226 227 228 228 231 233 234 235 237 238 236 234 232 229 228 227 228 229 230 230 229 229 230 234 235 235
101 24 23 131 142 211 214 258 276 281 286 299 327 332 330 330 8 99 139 193 157 130 124 217 160 148 159 164 150 142 135 127 123 119 113 105 99 96 95 96 96 97 98 98 96 95 104 120 142 166 177 196 215 218 219 218 217 222 228 230 231 232 231 229 230 232 232 233 234 234 233 235 236 236 234 233 231 231 231 230 229 228 228 230 234 236
107 7 299 145 178 239 2 5 336 343 343 329 342 336 333 336 350 137 174 179 141 143 176 172 158 152 157 156 148 145 143 135 128 124 118 110 103 99 97 98 99 100 101 100 97 94 98 110 128 148 162 177 194 206 214 215 216 221 225 226 228 230 230 230 229 230 231 231 231 230 229 231 235 238 239 236 234 233 233 231 231 230 229 229 231 234
109 316 314 42 88 359 18 10 357 3 0 349 359 357 355 352 7 110 95 76 80 102 141 139 132 130 140 144 139 138 137 130 124 121 115 110 108 105 100 99 101 102 100 99 99 98 96 98 105 116 128 147 164 179 195 202 209 220 224 226 230 231 231 234 235 234 234 233 231 231 233 235 236 238 241 242 240 237 235 236 236 234 233 233 232 233
56 327 321 40 63 9 16 15 354 349 353 6 4 1 3 359 8 78 100 97 79 77 110 119 116 108 118 128 125 129 131 126 122 119 113 112 113 108 103 101 101 101 101 101 102 100 98 98 97 95 96 104 121 137 144 154 173 196 214 221 226 230 230 232 236 238 237 235 233 234 237 239 237 236 238 243 245 244 240 239 241 242 241 240 239 237
39 8 338 50 81 349 10 29 354 331 341 16 4 354 350 338 326 63 99 138 121 119 119 120 127 143 152 134 127 128 129 124 120 118 114 114 113 111 109 108 106 103 102 103 103 99 97 97 97 93 87 87 91 103 110 103 110 139 174 191 202 215 222 221 223 228 229 230 232 235 236 237 238 237 237 239 243 245 244 241 240 243 246 246 245 244
53 76 23 66 93 303 333 48 15 337 348 5 342 337 327 307 312 46 13 10 123 133 139 146 150 149 146 140 134 132 130 125 123 123 124 123 117 114 115 115 113 110 106 103 102 101 98 95 94 91 84 79 77 79 83 82 82 78 71 105 166 193 202 198 197 201 210 216 222 230 232 232 235 237 237 238 239 241 243 242 239 239 242 244 244 244
40 90 104 114 107 287 301 62 56 14 10 280 306 334 344 3 77 73 41 14 33 86 110 119 129 137 144 144 139 137 135 133 132 131 131 129 124 119 118 118 118 116 111 106 103 102 101 97 95 91 84 77 73 72 75 77 76 74 70 70 79 98 115 166 184 183 187 194 200 212 223 226 229 232 235 237 239 239 240 242 242 238 238 240 242 243
38 53 56 105 105 217 298 66 74 287 234 249 290 323 16 57 78 79 56 26 16 33 70 84 102 132 136 135 134 133 132 132 133 133 132 130 126 121 117 116 117 118 116 112 107 105 104 101 99 95 89 83 77 74 74 74 73 73 72 70 69 77 87 113 167 172 171 188 188 186 193 205 210 215 222 228 231 233 233 238 243 242 240 242 243 243
97 69 31 51 100 145 29 79 125 223 258 291 296 299 2 26 45 61 47 19 2 11 58 75 66 87 113 121 126 127 126 127 126 128 132 130 123 118 116 116 118 118 117 117 113 109 107 105 101 98 94 89 82 75 73 73 75 75 74 75 76 80 87 93 105 112 81 51 170 149 158 187 195 197 208 219 224 228 230 236 245 247 246 248 249 250
109 109 56 18 28 123 113 116 149 195 303 316 313 311 359 324 288 104 75 11 355 5 50 82 69 69 105 118 120 122 124 119 111 120 134 132 124 118 115 116 119 118 118 121 120 115 112 110 108 105 101 95 85 75 69 68 73 78 79 80 84 87 88 88 90 91 88 80 74 79 79 56 209 200 216 229 226 226 225 224 231 237 241 247 250 253
74 102 119 101 9 72 94 67 57 99 217 269 273 287 321 321 271 128 105 15 353 30 78 99 91 83 104 118 122 125 123 115 97 127 139 135 131 126 120 117 119 119 119 124 126 123 120 117 114 111 106 98 89 80 72 62 61 74 78 76 82 93 95 93 93 93 91 86 79 72 62 45 30 13 349 333 314 251 223 213 203 203 225 243 250 251
37 50 101 96 27 38 91 92 123 165 211 246 257 290 326 336 354 95 79 340 262 116 116 118 113 112 123 133 133 130 124 118 131 148 141 137 136 134 129 125 124 123 123 125 128 127 124 120 116 113 107 97 89 82 76 61 45 57 73 71 74 91 99 95 93 90 87 84 83 80 73 65 61 62 54 23 348 319 270 240 217 205 214 234 248 256
14 18 52 63 36 73 99 92 191 202 254 258 248 291 329 345 37 76 46 251 193 164 150 136 128 131 140 142 136 124 113 128 144 146 142 141 140 139 138 134 130 129 127 126 128 127 123 122 118 110 96 85 80 73 66 52 33 34 56 64 64 76 85 86 85 84 84 84 84 86 86 80 74 72 68 57 40 10 329 299 259 235 230 236 246 256
349 10 56 87 116 108 94 95 272 262 260 267 286 314 338 6 61 93 250 202 169 167 165 151 144 146 146 140 137 137 136 141 149 151 147 145 143 139 138 137 136 136 135 133 134 135 136 136 129 100 70 62 59 45 28 21 18 23 35 38 36 52 66 70 69 79 90 87 80 73 70 66 56 50 48 46 47 42 17 359 332 278 253 253 260 263
334 354 22 69 103 83 124 113 356 294 255 295 318 325 345 30 182 205 179 154 160 168 171 164 159 158 157 161 175 188 171 158 157 158 158 162 161 150 144 147 148 146 144 141 142 145 147 146 143 132 72 5 352 346 345 344 348 2 6 353 353 17 40 36 349 322 326 7 36 27 32 31 17 3 346 353 20 26 16 11 8 1 346 309 296 288
181 123 335 290 185 103 61 60 50 239 256 332 335 330 354 75 195 163 127 138 167 173 172 170 170 168 169 175 184 181 167 160 158 159 161 167 169 163 158 162 163 158 154 151 152 155 151 142 136 127 308 306 310 312 312 312 317 325 328 328 333 334 324 307 294 292 294 291 290 306 333 341 316 311 309 322 355 8 3 7 10 10 15 19 8 348
234 153 240 259 223 110 86 78 201 223 295 329 331 293 120 103 136 137 125 133 169 177 178 178 179 179 180 183 178 164 159 158 158 160 161 160 161 160 160 164 166 165 165 166 162 153 37 354 353 352 342 323 308 300 296 293 293 294 299 307 311 309 304 297 288 282 284 290 292 296 304 306 287 269 269 283 309 329 143 125 96 351 337 336 332 335
263 221 184 190 237 154 174 229 254 317 346 346 34 121 114 113 119 125 128 132 154 176 183 184 185 187 188 185 173 163 160 160 160 163 164 162 161 162 163 165 169 174 187 206 246 312 321 326 332 335 333 330 324 306 293 289 286 283 284 287 289 291 293 293 292 289 286 286 287 288 290 289 276 256 247 248 242 199 178 173 178 195 221 257 279 292
290 280 178 157 315 259 171 312 337 16 20 20 65 111 119 125 123 117 119 124 139 167 181 182 182 182 181 176 169 163 162 163 164 165 167 165 164 167 170 173 178 186 198 208 234 276 293 307 316 316 319 326 331 325 310 296 288 282 276 273 276 281 287 291 294 295 292 288 285 283 281 275 263 248 238 233 222 202 195 195 196 202 212 222 231 246
342 10 56 83 13 61 59 330 350 33 32 26 51 102 118 122 123 116 112 114 122 147 168 175 174 172 170 167 163 159 158 160 162 164 168 171 174 179 184 190 191 193 201 223 254 274 289 308 317 318 322 327 330 326 312 295 287 285 278 275 276 278 282 287 292 296 296 291 285 281 280 276 267 253 240 232 223 213 209 209 210 214 218 219 220 227
350 9 25 71 32 99 241 299 3 75 64 44 55 80 104 118 125 121 116 118 122 132 148 158 162 164 163 162 162 161 160 165 174 178 178 180 187 192 197 204 210 219 241 263 277 292 308 319 324 325 327 328 330 324 307 289 283 283 282 286 287 286 288 290 290 295 300 298 292 285 280 279 277 270 261 250 239 231 228 226 223 222 224 231 237 239
338 346 353 126 27 351 282 309 50 90 71 50 58 63 80 127 136 132 132 139 139 139 145 152 158 165 167 168 173 178 178 183 195 201 195 190 190 193 197 207 222 240 256 265 277 294 309 318 323 325 326 326 323 318 304 288 284 285 288 293 296 296 298 297 295 294 297 300 300 295 289 283 280 278 277 273 264 255 249 244 243 239 233 235 246 253
339 311 218 99 22 290 242 283 81 112 91 58 65 64 65 121 145 143 143 152 156 158 161 164 169 179 186 186 189 192 191 189 192 196 195 190 191 197 207 219 227 233 241 253 268 283 299 312 317 319 322 320 315 311 304 296 292 292 293 295 297 299 302 303 304 303 301 300 302 304 303 300 294 289 287 285 281 276 266 256 251 249 245 242 242 249
215 228 188 150 186 226 211 179 96 118 137 107 79 70 73 97 131 144 146 155 164 170 174 177 182 190 196 195 195 197 196 190 188 192 194 196 203 212 217 221 224 225 231 245 262 279 296 308 313 314 314 310 306 305 303 300 297 296 295 295 298 302 305 308 311 312 311 309 307 306 307 309 307 302 296 291 288 286 280 269 257 249 247 248 247 248
Height
1497 1501 1503 1502 1501 1499 1499 1500 1503 1503 1503 1506 1508 1510 1512 1515 1515 1509 1506 1504 1504 1514 1519 1517 1522 1524 1524 1526 1524 1524 1526 1526 1529 1530 1530 1532 1534 1534 1536 1537 1539 1542 1544 1546 1548 1549 1551 1553 1555 1556 1558 1559 1561 1562 1564 1565 1567 1568 1570 1571 1572 1574 1575 1576 1577 1578 1579 1580 1581 1583 1584 1585 1587 1588 1589 1590 1591 1592 1593 1594 1595 1596 1597 1597 1598 1599
1496 1502 1501 1498 1498 1497 1497 1499 1501 1503 1504 1505 1508 1510 1512 1512 1511 1505 1504 1504 1503 1512 1519 1516 1522 1525 1522 1522 1523 1523 1525 1524 1525 1527 1529 1531 1532 1533 1534 1536 1538 1541 1543 1545 1546 1548 1550 1552 1554 1556 1557 1558 1560 1561 1563 1564 1566 1568 1569 1571 1572 1573 1574 1576 1577 1578 1579 1580 1581 1583 1584 1585 1587 1588 1589 1590 1591 1592 1593 1595 1596 1596 1597 1598 1599 1600
1500 1502 1498 1495 1496 1496 1497 1498 1501 1503 1504 1506 1507 1510 1512 1510 1508 1505 1503 1504 1504 1513 1522 1521 1524 1526 1521 1520 1523 1523 1524 1524 1525 1527 1529 1531 1531 1531 1533 1535 1537 1539 1541 1543 1544 1546 1548 1550 1553 1555 1556 1557 1559 1560 1561 1563 1565 1567 1568 1570 1572 1573 1574 1575 1577 1578 1579 1580 1582 1583 1584 1586 1587 1589 1590 1591 1592 1593 1594 1595 1596 1597 1598 1598 1599 1600
1504 1499 1494 1493 1495 1496 1497 1498 1501 1503 1504 1506 1507 1510 1511 1507 1509 1512 1509 1506 1506 1513 1522 1524 1527 1529 1524 1522 1523 1523 1524 1526 1527 1528 1529 1531 1531 1531 1532 1534 1535 1537 1539 1541 1542 1544 1547 1549 1551 1553 1555 1556 1558 1559 1561 1562 1564 1566 1568 1569 1571 1572 1574 1575 1576 1578 1579 1581 1582 1583 1584 1586 1587 1589 1590 1591 1592 1593 1594 1595 1596 1597 1598 1599 1600 1601
1501 1494 1491 1493 1495 1497 1498 1498 1501 1505 1506 1506 1506 1508 1508 1505 1507 1511 1510 1507 1510 1517 1517 1521 1534 1535 1526 1525 1524 1522 1524 1526 1527 1528 1528 1529 1530 1531 1532 1533 1534 1535 1537 1539 1540 1542 1545 1547 1549 1551 1554 1555 1557 1559 1560 1561 1563 1565 1567 1569 1570 1572 1573 1575 1576 1578 1579 1580 1581 1582 1584 1585 1587 1588 1589 1590 1591 1593 1594 1595 1596 1597 1598 1599 1600 1601
1497 1492 1491 1494 1496 1498 1500 1500 1501 1504 1508 1508 1505 1502 1502 1503 1505 1507 1509 1510 1521 1529 1518 1518 1539 1539 1525 1524 1524 1522 1524 1526 1527 1527 1526 1528 1529 1530 1531 1532 1533 1534 1535 1537 1538 1541 1543 1546 1548 1550 1552 1554 1556 1557 1559 1561 1562 1564 1566 1568 1570 1571 1572 1574 1576 1577 1579 1580 1581 1582 1583 1584 1585 1586 1588 1589 1590 1592 1593 1594 1596 1597 1598 1599 1600 1601
1493 1491 1491 1494 1497 1498 1501 1501 1499 1502 1509 1511 1502 1495 1498 1501 1505 1507 1508 1514 1526 1529 1516 1512 1530 1536 1528 1524 1521 1521 1524 1525 1527 1527 1526 1528 1527 1527 1529 1530 1532 1533 1534 1536 1537 1539 1541 1544 1547 1549 1551 1552 1554 1556 1558 1560 1562 1563 1565 1567 1569 1570 1572 1574 1575 1577 1578 1579 1581 1581 1582 1583 1584 1585 1587 1589 1590 1592 1593 1594 1595 1596 1598 1599 1600 1600
1490 1491 1493 1494 1496 1499 1502 1501 1498 1498 1508 1509 1496 1492 1497 1500 1505 1506 1505 1512 1516 1516 1515 1512 1518 1529 1530 1523 1517 1518 1524 1525 1525 1525 1526 1527 1525 1525 1527 1529 1530 1531 1532 1534 1536 1538 1540 1542 1544 1546 1549 1551 1553 1556 1558 1559 1561 1563 1564 1566 1568 1570 1572 1573 1575 1576 1578 1579 1580 1581 1582 1583 1584 1585 1587 1589 1590 1591 1593 1594 1595 1596 1597 1598 1599 1600
1488 1491 1493 1494 1497 1499 1498 1495 1494 1496 1502 1500 1492 1492 1495 1496 1501 1501 1504 1510 1509 1515 1527 1521 1516 1528 1530 1520 1516 1518 1524 1525 1521 1521 1522 1523 1523 1523 1525 1527 1528 1530 1531 1533 1535 1536 1538 1540 1542 1545 1547 1550 1552 1554 1556 1558 1560 1562 1564 1565 1567 1569 1571 1573 1574 1576 1577 1578 1580 1580 1581 1583 1584 1586 1587 1588 1590 1591 1592 1593 1594 1595 1596 1597 1598 1599
1488 1489 1488 1490 1494 1495 1491 1488 1489 1494 1496 1492 1490 1492 1493 1495 1498 1500 1506 1510 1511 1521 1530 1522 1517 1527 1529 1522 1520 1522 1523 1520 1515 1515 1517 1518 1520 1521 1522 1524 1526 1528 1530 1532 1534 1536 1537 1539 1541 1544 1546 1549 1551 1553 1555 1557 1559 1561 1563 1565 1566 1568 1570 1572 1573 1575 1576 1578 1579 1580 1581 1582 1584 1585 1587 1588 1589 1590 1591 1592 1593 1594 1595 1596 1597 1598
1486 1484 1485 1486 1488 1486 1484 1484 1485 1488 1490 1487 1490 1494 1496 1498 1498 1502 1506 1508 1520 1530 1522 1513 1513 1521 1528 1523 1517 1515 1510 1506 1507 1511 1513 1513 1516 1518 1520 1522 1524 1526 1528 1530 1533 1535 1537 1539 1541 1544 1546 1547 1549 1552 1554 1556 1558 1560 1561 1563 1565 1567 1569 1570 1572 1573 1575 1577 1578 1579 1580 1581 1583 1584 1586 1587 1588 1589 1590 1591 1592 1594 1595 1595 1597 1598
1485 1485 1484 1481 1480 1479 1481 1483 1482 1483 1486 1488 1493 1495 1502 1507 1505 1512 1515 1515 1534 1536 1515 1505 1507 1519 1528 1518 1508 1504 1497 1497 1501 1504 1506 1508 1512 1515 1518 1520 1523 1525 1527 1529 1532 1534 1536 1538 1541 1543 1545 1546 1548 1550 1552 1554 1556 1558 1560 1562 1564 1565 1567 1569 1570 1572 1574 1576 1577 1578 1580 1581 1582 1583 1585 1586 1587 1588 1589 1590 1592 1593 1594 1595 1596 1597
1485 1483 1481 1477 1475 1475 1481 1486 1485 1484 1486 1491 1495 1497 1509 1519 1521 1528 1532 1533 1540 1527 1505 1502 1507 1520 1523 1507 1500 1500 1496 1496 1498 1497 1501 1504 1508 1512 1515 1519 1522 1524 1526 1528 1530 1532 1534 1536 1539 1541 1543 1545 1547 1548 1550 1552 1555 1557 1559 1561 1562 1564 1566 1567 1569 1571 1572 1574 1576 1577 1579 1580 1581 1582 1583 1585 1586 1587 1588 1589 1591 1592 1593 1594 1595 1596
1490 1483 1478 1478 1476 1472 1477 1485 1488 1488 1488 1491 1494 1498 1510 1522 1531 1537 1537 1539 1539 1519 1501 1500 1508 1519 1514 1500 1498 1498 1493 1494 1494 1495 1499 1501 1505 1510 1512 1516 1520 1523 1525 1526 1529 1531 1533 1534 1537 1539 1541 1543 1545 1547 1549 1551 1553 1556 1558 1559 1561 1563 1565 1566 1568 1570 1571 1573 1575 1576 1578 1579 1580 1581 1582 1584 1585 1586 1587 1589 1589 1591 1592 1593 1594 1595
1500 1495 1482 1478 1477 1473 1473 1477 1480 1482 1485 1487 1486 1491 1501 1508 1519 1528 1526 1528 1529 1518 1507 1504 1512 1520 1513 1501 1497 1493 1490 1492 1492 1495 1498 1500 1505 1508 1512 1516 1518 1521 1523 1525 1527 1530 1532 1534 1535 1537 1539 1541 1543 1546 1548 1550 1552 1554 1556 1558 1559 1561 1563 1565 1567 1569 1570 1572 1574 1575 1577 1579 1580 1581 1582 1583 1584 1585 1587 1588 1589 1590 1591 1592 1593 1594
1502 1498 1480 1474 1474 1472 1473 1471 1470 1476 1484 1486 1483 1488 1495 1492 1497 1506 1507 1507 1510 1515 1518 1515 1517 1516 1507 1500 1495 1490 1490 1491 1493 1497 1499 1502 1505 1508 1511 1514 1516 1519 1521 1524 1526 1529 1532 1533 1535 1537 1538 1540 1542 1545 1547 1549 1551 1553 1555 1556 1558 1560 1562 1564 1566 1567 1569 1571 1573 1574 1576 1578 1579 1580 1582 1583 1584 1585 1586 1588 1588 1589 1591 1592 1593 1594
1503 1494 1477 1474 1473 1470 1472 1470 1467 1474 1482 1486 1486 1488 1487 1481 1483 1494 1501 1501 1503 1516 1523 1521 1520 1515 1506 1503 1499 1494 1495 1495 1497 1499 1500 1503 1505 1507 1510 1511 1514 1517 1519 1522 1524 1527 1531 1533 1535 1536 1538 1540 1541 1544 1546 1548 1550 1552 1554 1556 1557 1559 1561 1563 1564 1566 1568 1570 1571 1573 1575 1576 1578 1579 1581 1582 1583 1585 1586 1587 1588 1589 1590 1591 1592 1594
1500 1495 1480 1477 1477 1470 1468 1468 1466 1467 1472 1482 1486 1483 1479 1481 1483 1488 1500 1507 1512 1525 1529 1524 1525 1522 1518 1516 1509 1503 1504 1503 1502 1500 1502 1505 1506 1508 1509 1510 1513 1515 1517 1521 1524 1527 1530 1532 1535 1536 1537 1539 1540 1543 1545 1547 1550 1551 1553 1555 1556 1558 1559 1561 1563 1564 1566 1568 1570 1572 1573 1575 1577 1578 1580 1581 1583 1585 1586 1587 1588 1589 1590 1591 1592 1593
1496 1498 1485 1477 1479 1473 1466 1468 1471 1468 1467 1472 1476 1474 1478 1491 1494 1492 1502 1510 1518 1534 1539 1529 1527 1526 1524 1523 1517 1514 1513 1510 1506 1503 1503 1505 1507 1508 1510 1511 1514 1515 1518 1522 1523 1526 1529 1531 1535 1535 1536 1538 1540 1542 1544 1546 1549 1551 1553 1555 1556 1558 1559 1560 1561 1563 1565 1567 1568 1570 1572 1573 1575 1577 1579 1580 1582 1583 1584 1586 1587 1588 1589 1590 1591 1592
1493 1499 1493 1478 1475 1474 1470 1473 1479 1478 1471 1469 1472 1474 1477 1486 1491 1491 1497 1501 1510 1532 1541 1536 1532 1528 1524 1524 1521 1518 1515 1512 1509 1507 1506 1507 1507 1508 1510 1511 1513 1515 1518 1520 1522 1525 1528 1531 1533 1533 1535 1538 1540 1542 1544 1545 1548 1550 1552 1554 1555 1557 1558 1559 1561 1562 1563 1565 1567 1569 1571 1572 1574 1576 1577 1579 1580 1582 1583 1584 1586 1587 1588 1589 1590 1591
1491 1497 1497 1483 1475 1478 1480 1480 1482 1483 1479 1477 1480 1482 1481 1482 1485 1488 1492 1493 1501 1521 1535 1539 1539 1530 1521 1519 1518 1516 1514 1512 1510 1509 1509 1510 1510 1511 1511 1512 1513 1515 1517 1520 1521 1523 1526 1529 1531 1533 1536 1538 1540 1542 1543 1545 1547 1548 1551 1552 1553 1555 1557 1558 1560 1561 1563 1564 1566 1568 1570 1571 1573 1574 1576 1577 1579 1580 1581 1583 1584 1585 1587 1588 1589 1590
1493 1496 1499 1492 1485 1485 1484 1479 1477 1478 1479 1481 1482 1482 1482 1482 1486 1495 1501 1498 1499 1509 1520 1528 1534 1530 1521 1516 1515 1514 1513 1511 1511 1511 1512 1512 1513 1514 1515 1514 1515 1516 1517 1520 1521 1522 1524 1527 1530 1533 1535 1537 1538 1540 1542 1544 1545 1546 1548 1550 1552 1553 1554 1556 1558 1559 1561 1563 1564 1566 1568 1570 1572 1573 1575 1576 1577 1579 1580 1581 1582 1584 1585 1586 1587 1588
1494 1497 1499 1496 1489 1487 1483 1477 1477 1477 1475 1477 1480 1481 1482 1482 1484 1494 1501 1500 1501 1507 1510 1516 1526 1527 1519 1514 1514 1513 1512 1512 1512 1512 1513 1514 1515 1516 1517 1518 1518 1517 1518 1520 1522 1523 1525 1527 1529 1531 1533 1534 1536 1537 1539 1541 1543 1544 1546 1548 1550 1551 1552 1554 1556 1558 1560 1561 1562 1564 1566 1568 1570 1571 1573 1575 1576 1577 1578 1580 1581 1582 1584 1585 1586 1587
1495 1499 1501 1497 1489 1483 1479 1476 1476 1475 1476 1480 1482 1481 1483 1483 1481 1485 1489 1491 1499 1507 1508 1514 1527 1527 1517 1514 1514 1513 1513 1513 1513 1513 1514 1516 1516 1515 1516 1519 1521 1520 1519 1520 1522 1524 1526 1528 1529 1530 1532 1534 1534 1535 1536 1538 1541 1543 1544 1546 1547 1548 1549 1551 1554 1556 1558 1559 1560 1562 1564 1565 1567 1569 1571 1572 1574 1575 1576 1578 1579 1580 1581 1583 1584 1585
1497 1502 1505 1504 1501 1496 1491 1488 1486 1482 1482 1487 1488 1483 1482 1481 1480 1482 1486 1488 1497 1505 1502 1507 1523 1527 1516 1513 1514 1513 1513 1514 1514 1515 1515 1516 1518 1517 1515 1517 1521 1523 1521 1521 1523 1525 1527 1529 1529 1529 1531 1533 1534 1534 1535 1537 1539 1540 1542 1543 1544 1546 1547 1549 1552 1554 1556 1557 1558 1560 1561 1563 1564 1566 1568 1570 1571 1573 1574 1575 1577 1578 1579 1580 1582 1583
1498 1502 1504 1508 1514 1517 1515 1510 1503 1496 1492 1491 1489 1484 1481 1481 1480 1482 1487 1491 1496 1503 1502 1505 1519 1523 1516 1514 1515 1513 1514 1515 1515 1516 1517 1517 1518 1518 1518 1519 1521 1522 1522 1523 1523 1526 1528 1530 1529 1530 1531 1532 1533 1534 1535 1536 1537 1538 1540 1542 1543 1545 1546 1548 1550 1552 1553 1555 1556 1557 1559 1561 1563 1564 1566 1568 1569 1571 1572 1573 1574 1576 1577 1578 1579 1581
1498 1502 1502 1506 1512 1515 1514 1509 1502 1498 1497 1494 1490 1485 1482 1480 1480 1482 1486 1489 1492 1501 1508 1510 1513 1517 1518 1517 1515 1515 1515 1516 1517 1517 1518 1518 1518 1518 1519 1521 1522 1522 1522 1524 1525 1526 1528 1529 1529 1529 1530 1531 1531 1532 1533 1534 1535 1538 1540 1542 1543 1544 1545 1547 1549 1550 1552 1553 1554 1556 1558 1560 1562 1564 1565 1567 1568 1569 1571 1572 1573 1574 1575 1576 1577 1578
1500 1503 1503 1505 1508 1508 1505 1502 1497 1495 1496 1494 1492 1489 1484 1480 1480 1481 1483 1484 1487 1497 1509 1511 1508 1511 1516 1515 1514 1516 1516 1516 1518 1518 1519 1519 1519 1519 1521 1522 1522 1522 1522 1524 1526 1527 1528 1529 1529 1528 1528 1528 1529 1531 1532 1533 1535 1538 1540 1541 1542 1543 1544 1545 1546 1548 1550 1551 1553 1555 1557 1559 1561 1564 1565 1566 1567 1568 1569 1570 1571 1572 1572 1574 1575 1576
1503 1506 1503 1502 1506 1503 1499 1498 1496 1493 1493 1492 1492 1492 1487 1482 1482 1482 1484 1486 1484 1487 1497 1505 1508 1510 1513 1513 1513 1515 1516 1517 1518 1519 1519 1520 1519 1521 1523 1523 1523 1523 1523 1524 1525 1527 1528 1529 1529 1529 1530 1530 1530 1531 1532 1534 1536 1537 1537 1538 1540 1541 1542 1543 1544 1545 1548 1549 1550 1552 1555 1557 1559 1562 1564 1564 1565 1566 1567 1568 1569 1570 1570 1571 1572 1573
1504 1506 1503 1502 1504 1501 1497 1495 1494 1494 1493 1492 1492 1493 1491 1488 1485 1484 1487 1490 1488 1487 1492 1501 1509 1512 1511 1511 1513 1515 1516 1518 1519 1520 1521 1521 1522 1523 1525 1525 1525 1525 1526 1526 1526 1527 1529 1529 1530 1531 1532 1532 1532 1533 1533 1534 1535 1535 1534 1536 1537 1539 1540 1541 1542 1544 1546 1549 1550 1551 1555 1556 1558 1561 1563 1563 1563 1564 1565 1567 1567 1567 1568 1569 1569 1571
1503 1506 1505 1503 1504 1505 1500 1495 1495 1497 1496 1495 1494 1492 1493 1494 1492 1490 1491 1491 1493 1499 1501 1502 1510 1516 1513 1511 1513 1516 1518 1519 1520 1522 1524 1525 1525 1525 1526 1527 1528 1528 1528 1529 1529 1529 1529 1530 1531 1532 1532 1533 1533 1534 1534 1534 1534 1535 1534 1534 1535 1536 1537 1539 1541 1543 1546 1548 1549 1550 1553 1553 1554 1557 1560 1561 1563 1562 1563 1564 1566 1566 1566 1567 1568 1569
1504 1507 1507 1504 1508 1511 1506 1500 1502 1500 1495 1495 1497 1496 1497 1499 1497 1494 1492 1490 1492 1501 1507 1508 1512 1515 1512 1511 1514 1517 1518 1520 1521 1523 1525 1527 1528 1527 1528 1530 1531 1531 1531 1531 1531 1531 1531 1532 1532 1533 1533 1534 1534 1534 1534 1534 1535 1535 1535 1535 1534 1535 1536 1538 1540 1542 1544 1545 1547 1548 1549 1550 1552 1554 1556 1558 1560 1561 1562 1563 1564 1564 1564 1565 1566 1567
1508 1508 1509 1510 1513 1515 1512 1508 1508 1507 1506 1507 1504 1501 1501 1499 1496 1496 1495 1492 1490 1494 1501 1505 1506 1507 1507 1509 1512 1516 1518 1520 1522 1523 1524 1527 1529 1530 1531 1532 1533 1534 1534 1534 1533 1533 1534 1534 1534 1535 1536 1535 1536 1535 1535 1535 1536 1536 1536 1535 1536 1536 1537 1537 1538 1539 1541 1543 1545 1546 1547 1549 1550 1553 1555 1556 1556 1557 1559 1560 1561 1562 1562 1563 1564 1566
1509 1508 1511 1513 1514 1519 1518 1512 1514 1522 1525 1519 1506 1500 1501 1499 1497 1502 1505 1502 1497 1494 1494 1496 1500 1503 1506 1507 1510 1514 1517 1519 1521 1524 1525 1527 1529 1531 1533 1534 1535 1536 1536 1536 1536 1536 1536 1536 1537 1538 1538 1538 1538 1537 1537 1536 1536 1537 1537 1536 1536 1537 1537 1537 1538 1539 1541 1543 1544 1546 1547 1549 1551 1552 1554 1555 1555 1554 1555 1557 1559 1559 1559 1561 1562 1564
1509 1509 1512 1513 1514 1518 1516 1514 1527 1536 1526 1512 1504 1502 1501 1500 1499 1503 1506 1506 1504 1500 1498 1500 1504 1506 1507 1509 1512 1514 1517 1520 1522 1525 1527 1529 1531 1532 1533 1535 1536 1537 1537 1538 1538 1538 1539 1539 1539 1540 1540 1540 1540 1540 1539 1538 1537 1538 1538 1537 1537 1537 1537 1538 1539 1540 1543 1545 1546 1546 1547 1549 1550 1551 1552 1552 1552 1552 1552 1555 1557 1557 1557 1559 1560 1562
1508 1509 1512 1513 1515 1517 1516 1520 1533 1533 1515 1504 1505 1504 1501 1500 1500 1502 1508 1511 1510 1507 1504 1506 1511 1512 1512 1515 1517 1517 1520 1522 1525 1528 1530 1532 1533 1533 1534 1535 1537 1538 1538 1539 1540 1540 1541 1542 1542 1542 1542 1542 1542 1542 1541 1541 1540 1539 1539 1539 1539 1539 1539 1539 1540 1541 1544 1546 1547 1548 1548 1548 1548 1548 1548 1549 1549 1550 1551 1554 1555 1556 1557 1558 1559 1561
1507 1510 1513 1515 1516 1517 1518 1520 1522 1520 1514 1508 1505 1504 1504 1504 1502 1503 1512 1518 1514 1511 1510 1509 1512 1517 1518 1519 1521 1522 1523 1525 1528 1531 1533 1534 1535 1535 1535 1536 1538 1539 1540 1541 1542 1542 1543 1544 1544 1544 1544 1544 1544 1544 1544 1544 1543 1542 1542 1542 1542 1541 1541 1541 1542 1543 1547 1548 1549 1548 1548 1547 1547 1545 1546 1548 1548 1549 1551 1552 1553 1554 1554 1555 1556 1558
1507 1510 1512 1516 1518 1517 1517 1517 1519 1525 1524 1514 1506 1505 1504 1504 1502 1501 1511 1521 1517 1513 1514 1511 1512 1518 1521 1522 1524 1525 1525 1529 1533 1535 1535 1535 1536 1535 1537 1538 1539 1541 1542 1542 1543 1544 1544 1545 1545 1546 1546 1546 1546 1547 1547 1547 1547 1546 1545 1545 1545 1545 1544 1544 1545 1547 1549 1549 1549 1548 1548 1547 1546 1545 1546 1548 1548 1548 1549 1550 1550 1551 1551 1552 1553 1555
1509 1511 1511 1514 1519 1519 1518 1519 1523 1526 1521 1511 1507 1506 1503 1503 1501 1500 1513 1525 1520 1514 1516 1514 1513 1518 1522 1524 1525 1525 1527 1532 1537 1536 1536 1537 1537 1536 1537 1538 1540 1542 1543 1543 1544 1544 1545 1546 1546 1547 1548 1548 1548 1549 1549 1549 1549 1548 1548 1547 1547 1547 1547 1547 1547 1548 1549 1549 1548 1548 1548 1547 1547 1547 1547 1548 1548 1548 1548 1549 1549 1549 1549 1549 1551 1553
1511 1512 1513 1516 1520 1521 1522 1523 1523 1521 1515 1508 1507 1507 1505 1502 1500 1506 1521 1525 1517 1513 1516 1515 1515 1519 1522 1524 1525 1526 1527 1532 1536 1537 1538 1539 1539 1539 1538 1539 1541 1543 1544 1544 1545 1546 1546 1547 1547 1548 1549 1549 1550 1550 1550 1550 1550 1550 1550 1549 1549 1548 1548 1548 1548 1548 1549 1549 1549 1549 1549 1548 1548 1548 1548 1548 1548 1548 1548 1548 1548 1548 1547 1548 1549 1551
1516 1516 1518 1520 1521 1522 1522 1524 1524 1520 1513 1507 1505 1506 1505 1503 1506 1515 1520 1513 1508 1513 1515 1514 1516 1519 1521 1523 1525 1525 1528 1530 1533 1536 1539 1541 1541 1540 1539 1540 1542 1543 1544 1545 1546 1546 1547 1547 1548 1548 1549 1549 1550 1551 1551 1551 1551 1551 1551 1550 1550 1549 1549 1549 1549 1549 1549 1549 1549 1549 1549 1549 1549 1548 1548 1548 1548 1548 1547 1547 1546 1546 1545 1546 1547 1548
1519 1520 1521 1522 1523 1524 1523 1524 1526 1522 1513 1507 1506 1504 1504 1507 1512 1514 1510 1505 1507 1512 1513 1514 1516 1516 1518 1523 1525 1525 1527 1529 1531 1534 1537 1540 1542 1541 1540 1540 1542 1543 1544 1545 1545 1546 1546 1547 1548 1548 1549 1550 1550 1551 1551 1551 1551 1551 1551 1551 1551 1551 1550 1550 1550 1550 1550 1550 1550 1550 1549 1549 1549 1548 1548 1548 1548 1546 1545 1545 1544 1544 1543 1544 1544 1545
1519 1520 1523 1523 1523 1526 1526 1526 1528 1524 1514 1509 1508 1505 1505 1508 1509 1505 1504 1507 1509 1510 1511 1515 1516 1515 1518 1522 1524 1525 1526 1528 1531 1534 1536 1539 1541 1540 1540 1541 1542 1543 1544 1544 1545 1545 1546 1546 1547 1548 1549 1550 1550 1550 1550 1551 1551 1551 1551 1551 1551 1551 1551 1551 1551 1550 1550 1550 1550 1550 1550 1550 1550 1549 1549 1549 1548 1546 1545 1544 1543 1543 1542 1543 1544 1545
1519 1520 1523 1522 1520 1524 1527 1526 1523 1518 1512 1510 1509 1507 1507 1507 1506 1505 1506 1507 1508 1509 1511 1513 1515 1517 1519 1520 1523 1526 1526 1528 1531 1533 1535 1537 1538 1538 1540 1541 1542 1543 1543 1544 1544 1544 1545 1546 1546 1546 1547 1548 1549 1549 1549 1550 1550 1550 1550 1550 1550 1550 1550 1550 1550 1550 1550 1550 1549 1550 1550 1550 1550 1550 1549 1549 1549 1548 1547 1546 1545 1544 1544 1544 1545 1546
1519 1519 1520 1519 1517 1520 1522 1520 1516 1513 1512 1511 1510 1508 1508 1508 1508 1508 1508 1507 1508 1509 1510 1512 1515 1518 1519 1521 1523 1525 1526 1528 1530 1532 1533 1535 1536 1538 1540 1541 1542 1543 1543 1543 1544 1544 1544 1545 1545 1545 1546 1546 1547 1548 1548 1549 1549 1549 1550 1550 1549 1549 1549 1549 1549 1549 1549 1549 1548 1548 1548 1549 1549 1549 1548 1548 1548 1548 1548 1548 1547 1546 1546 1546 1546 1547
1518 1517 1516 1516 1516 1518 1518 1516 1514 1515 1514 1513 1511 1510 1510 1509 1509 1510 1509 1509 1510 1510 1511 1513 1515 1517 1520 1522 1523 1525 1526 1528 1529 1531 1533 1534 1535 1537 1539 1540 1541 1542 1542 1543 1544 1544 1544 1544 1545 1545 1545 1545 1546 1547 1547 1548 1548 1548 1549 1549 1548 1548 1548 1547 1548 1548 1548 1548 1548 1547 1547 1547 1547 1547 1547 1547 1548 1548 1548 1548 1548 1548 1547 1547 1547 1547
1518 1516 1516 1517 1517 1519 1519 1516 1516 1516 1516 1515 1514 1513 1512 1512 1512 1512 1511 1511 1511 1512 1513 1514 1515 1517 1520 1522 1524 1527 1529 1530 1531 1531 1532 1533 1535 1536 1537 1538 1539 1540 1541 1543 1543 1544 1544 1544 1544 1544 1544 1545 1545 1546 1546 1547 1547 1547 1547 1547 1547 1547 1547 1546 1546 1547 1547 1547 1547 1547 1546 1546 1546 1546 1547 1547 1547 1547 1547 1548 1548 1548 1548 1547 1547 1547
1518 1517 1518 1519 1519 1520 1520 1518 1517 1517 1517 1516 1516 1515 1515 1514 1514 1514 1514 1514 1514 1514 1515 1516 1517 1519 1521 1522 1525 1528 1530 1532 1534 1534 1533 1533 1534 1535 1536 1538 1538 1539 1540 1541 1542 1542 1543 1543 1543 1543 1543 1544 1544 1544 1545 1545 1545 1545 1545 1545 1545 1545 1545 1545 1545 1545 1545 1545 1545 1545 1545 1545 1545 1545 1545 1545 1546 1546 1546 1546 1546 1547 1547 1547 1546 1546
1518 1517 1518 1520 1520 1520 1520 1518 1518 1518 1518 1517 1517 1517 1516 1516 1516 1516 1516 1516 1517 1517 1518 1519 1520 1522 1523 1524 1526 1527 1529 1531 1533 1534 1534 1534 1534 1535 1536 1537 1538 1539 1540 1540 1541 1541 1541 1541 1542 1541 1541 1542 1542 1543 1543 1543 1543 1543 1543 1543 1543 1543 1543 1543 1543 1543 1544 1544 1544 1544 1544 1543 1543 1543 1543 1543 1543 1544 1544 1544 1544 1545 1545 1545 1545 1544
1518 1518 1519 1520 1521 1521 1519 1518 1518 1518 1519 1519 1519 1518 1518 1518 1518 1518 1518 1518 1519 1519 1520 1521 1522 1523 1524 1524 1525 1527 1528 1530 1531 1533 1533 1533 1534 1535 1536 1537 1538 1539 1539 1539 1540 1540 1540 1540 1540 1540 1540 1540 1540 1541 1541 1541 1541 1541 1541 1542 1541 1541 1541 1541 1541 1541 1542 1542 1542 1542 1542 1541 1541 1541 1540 1540 1540 1540 1541 1541 1542 1542 1542 1542 1543 1542
1518 1518 1518 1519 1521 1520 1518 1518 1518 1519 1519 1520 1519 1519 1519 1519 1519 1519 1520 1520 1520 1521 1521 1522 1523 1523 1524 1525 1526 1527 1528 1529 1531 1532 1533 1533 1534 1535 1535 1536 1538 1538 1538 1539 1539 1539 1539 1539 1539 1539 1539 1539 1539 1539 1539 1538 1539 1539 1540 1540 1539 1539 1539 1539 1539 1539 1539 1539 1540 1539 1539 1539 1538 1538 1538 1538 1537 1537 1537 1538 1539 1540 1540 1539 1540 1540